Year,Month,Day,Hour,Minute,Value (Times are PST for temperature in C)
2012,04,08,00,00,4.60
2012,04,08,00,01,4.60
2012,04,08,00,02,4.60
2012,04,08,00,03,4.60
2012,04,08,00,04,4.60
2012,04,08,00,05,4.60
2012,04,08,00,06,4.60
2012,04,08,00,07,4.60
2012,04,08,00,08,4.60
2012,04,08,00,09,4.60
2012,04,08,00,10,4.60
2012,04,08,00,11,4.50
2012,04,08,00,12,4.50
2012,04,08,00,13,4.50
2012,04,08,00,14,4.50
2012,04,08,00,15,4.50
2012,04,08,00,16,4.40
2012,04,08,00,17,4.50
2012,04,08,00,18,4.40
2012,04,08,00,19,4.40
2012,04,08,00,20,4.40
2012,04,08,00,21,4.40
2012,04,08,00,22,4.40
2012,04,08,00,23,4.40
2012,04,08,00,24,4.40
2012,04,08,00,25,4.40
2012,04,08,00,26,4.40
2012,04,08,00,27,4.40
2012,04,08,00,28,4.40
2012,04,08,00,29,4.30
2012,04,08,00,30,4.30
2012,04,08,00,31,4.30
2012,04,08,00,32,4.30
2012,04,08,00,33,4.30
2012,04,08,00,34,4.30
2012,04,08,00,35,4.30
2012,04,08,00,36,4.30
2012,04,08,00,37,4.30
2012,04,08,00,38,4.30
2012,04,08,00,39,4.20
2012,04,08,00,40,4.20
2012,04,08,00,41,4.20
2012,04,08,00,42,4.20
2012,04,08,00,43,4.20
2012,04,08,00,44,4.20
2012,04,08,00,45,4.20
2012,04,08,00,46,4.20
2012,04,08,00,47,4.20
2012,04,08,00,48,4.10
2012,04,08,00,49,4.10
2012,04,08,00,50,4.10
2012,04,08,00,51,4.10
2012,04,08,00,52,4.10
2012,04,08,00,53,4.10
2012,04,08,00,54,4.10
2012,04,08,00,55,4.10
2012,04,08,00,56,4.10
2012,04,08,00,57,4.10
2012,04,08,00,58,4.00
2012,04,08,00,59,4.00
2012,04,08,01,00,4.00
2012,04,08,01,01,4.00
2012,04,08,01,02,3.90
2012,04,08,01,03,3.90
2012,04,08,01,04,3.90
2012,04,08,01,05,3.90
2012,04,08,01,06,3.90
2012,04,08,01,07,3.90
2012,04,08,01,08,3.90
2012,04,08,01,09,3.90
2012,04,08,01,10,3.90
2012,04,08,01,11,3.90
2012,04,08,01,12,3.90
2012,04,08,01,13,3.90
2012,04,08,01,14,3.90
2012,04,08,01,15,3.90
2012,04,08,01,16,3.90
2012,04,08,01,17,3.90
2012,04,08,01,18,3.90
2012,04,08,01,19,4.00
2012,04,08,01,20,4.00
2012,04,08,01,21,4.00
2012,04,08,01,22,4.00
2012,04,08,01,23,4.00
2012,04,08,01,24,4.00
2012,04,08,01,25,4.00
2012,04,08,01,26,4.00
2012,04,08,01,27,4.00
2012,04,08,01,28,4.00
2012,04,08,01,29,4.00
2012,04,08,01,30,4.00
2012,04,08,01,31,4.00
2012,04,08,01,32,4.00
2012,04,08,01,33,4.00
2012,04,08,01,34,4.00
2012,04,08,01,35,4.00
2012,04,08,01,36,4.00
2012,04,08,01,37,4.00
2012,04,08,01,38,4.00
2012,04,08,01,39,4.00
2012,04,08,01,40,4.00
2012,04,08,01,41,4.00
2012,04,08,01,42,3.90
2012,04,08,01,43,3.90
2012,04,08,01,44,3.90
2012,04,08,01,45,3.90
2012,04,08,01,46,3.90
2012,04,08,01,47,3.90
2012,04,08,01,48,3.80
2012,04,08,01,49,3.80
2012,04,08,01,50,3.80
2012,04,08,01,51,3.80
2012,04,08,01,52,3.80
2012,04,08,01,53,3.80
2012,04,08,01,54,3.80
2012,04,08,01,55,3.80
2012,04,08,01,56,3.80
2012,04,08,01,57,3.80
2012,04,08,01,58,3.80
2012,04,08,01,59,3.80
2012,04,08,02,00,3.80
2012,04,08,02,01,3.80
2012,04,08,02,02,3.80
2012,04,08,02,03,3.80
2012,04,08,02,04,3.80
2012,04,08,02,05,3.80
2012,04,08,02,06,3.80
2012,04,08,02,07,3.80
2012,04,08,02,08,3.80
2012,04,08,02,09,3.80
2012,04,08,02,10,3.80
2012,04,08,02,11,3.70
2012,04,08,02,12,3.70
2012,04,08,02,13,3.70
2012,04,08,02,14,3.70
2012,04,08,02,15,3.70
2012,04,08,02,16,3.70
2012,04,08,02,17,3.70
2012,04,08,02,18,3.70
2012,04,08,02,19,3.60
2012,04,08,02,20,3.60
2012,04,08,02,21,3.60
2012,04,08,02,22,3.60
2012,04,08,02,23,3.60
2012,04,08,02,24,3.60
2012,04,08,02,25,3.60
2012,04,08,02,26,3.50
2012,04,08,02,27,3.50
2012,04,08,02,28,3.50
2012,04,08,02,29,3.50
2012,04,08,02,30,3.40
2012,04,08,02,31,3.40
2012,04,08,02,32,3.40
2012,04,08,02,33,3.40
2012,04,08,02,34,3.30
2012,04,08,02,35,3.30
2012,04,08,02,36,3.30
2012,04,08,02,37,3.30
2012,04,08,02,38,3.30
2012,04,08,02,39,3.30
2012,04,08,02,40,3.30
2012,04,08,02,41,3.30
2012,04,08,02,42,3.30
2012,04,08,02,43,3.20
2012,04,08,02,44,3.20
2012,04,08,02,45,3.20
2012,04,08,02,46,3.20
2012,04,08,02,47,3.20
2012,04,08,02,48,3.20
2012,04,08,02,49,3.20
2012,04,08,02,50,3.20
2012,04,08,02,51,3.10
2012,04,08,02,52,3.10
2012,04,08,02,53,3.10
2012,04,08,02,54,3.10
2012,04,08,02,55,3.10
2012,04,08,02,56,3.10
2012,04,08,02,57,3.10
2012,04,08,02,58,3.10
2012,04,08,02,59,3.10
2012,04,08,03,00,3.00
2012,04,08,03,01,3.00
2012,04,08,03,02,3.00
2012,04,08,03,03,3.00
2012,04,08,03,04,3.00
2012,04,08,03,05,3.00
2012,04,08,03,06,2.90
2012,04,08,03,07,2.90
2012,04,08,03,08,2.90
2012,04,08,03,09,2.90
2012,04,08,03,10,2.90
2012,04,08,03,11,2.90
2012,04,08,03,12,2.90
2012,04,08,03,13,2.90
2012,04,08,03,14,2.90
2012,04,08,03,15,2.90
2012,04,08,03,16,2.90
2012,04,08,03,17,2.90
2012,04,08,03,18,2.90
2012,04,08,03,19,2.90
2012,04,08,03,20,2.90
2012,04,08,03,21,2.90
2012,04,08,03,22,2.90
2012,04,08,03,23,2.80
2012,04,08,03,24,2.80
2012,04,08,03,25,2.80
2012,04,08,03,26,2.80
2012,04,08,03,27,2.80
2012,04,08,03,28,2.80
2012,04,08,03,29,2.80
2012,04,08,03,30,2.80
2012,04,08,03,31,2.80
2012,04,08,03,32,2.80
2012,04,08,03,33,2.80
2012,04,08,03,34,2.80
2012,04,08,03,35,2.70
2012,04,08,03,36,2.70
2012,04,08,03,37,2.70
2012,04,08,03,38,2.70
2012,04,08,03,39,2.70
2012,04,08,03,40,2.70
2012,04,08,03,41,2.70
2012,04,08,03,42,2.60
2012,04,08,03,43,2.60
2012,04,08,03,44,2.60
2012,04,08,03,45,2.60
2012,04,08,03,46,2.60
2012,04,08,03,47,2.60
2012,04,08,03,48,2.60
2012,04,08,03,49,2.50
2012,04,08,03,50,2.50
2012,04,08,03,51,2.50
2012,04,08,03,52,2.50
2012,04,08,03,53,2.40
2012,04,08,03,54,2.40
2012,04,08,03,55,2.40
2012,04,08,03,56,2.40
2012,04,08,03,57,2.40
2012,04,08,03,58,2.40
2012,04,08,03,59,2.40
2012,04,08,04,00,2.40
2012,04,08,04,01,2.40
2012,04,08,04,02,2.30
2012,04,08,04,03,2.30
2012,04,08,04,04,2.30
2012,04,08,04,05,2.30
2012,04,08,04,06,2.30
2012,04,08,04,07,2.30
2012,04,08,04,08,2.20
2012,04,08,04,09,2.20
2012,04,08,04,10,2.20
2012,04,08,04,11,2.20
2012,04,08,04,12,2.20
2012,04,08,04,13,2.10
2012,04,08,04,14,2.10
2012,04,08,04,15,2.10
2012,04,08,04,16,2.10
2012,04,08,04,17,2.10
2012,04,08,04,18,2.10
2012,04,08,04,19,2.10
2012,04,08,04,20,2.10
2012,04,08,04,21,2.00
2012,04,08,04,22,2.00
2012,04,08,04,23,2.00
2012,04,08,04,24,1.90
2012,04,08,04,25,1.90
2012,04,08,04,26,1.90
2012,04,08,04,27,1.90
2012,04,08,04,28,1.90
2012,04,08,04,29,1.90
2012,04,08,04,30,1.80
2012,04,08,04,31,1.80
2012,04,08,04,32,1.80
2012,04,08,04,33,1.80
2012,04,08,04,34,1.80
2012,04,08,04,35,1.80
2012,04,08,04,36,1.70
2012,04,08,04,37,1.70
2012,04,08,04,38,1.70
2012,04,08,04,39,1.70
2012,04,08,04,40,1.70
2012,04,08,04,41,1.70
2012,04,08,04,42,1.70
2012,04,08,04,43,1.70
2012,04,08,04,44,1.70
2012,04,08,04,45,1.70
2012,04,08,04,46,1.70
2012,04,08,04,47,1.70
2012,04,08,04,48,1.70
2012,04,08,04,49,1.70
2012,04,08,04,50,1.70
2012,04,08,04,51,1.70
2012,04,08,04,52,1.70
2012,04,08,04,53,1.80
2012,04,08,04,54,1.80
2012,04,08,04,55,1.80
2012,04,08,04,56,1.80
2012,04,08,04,57,1.80
2012,04,08,04,58,1.80
2012,04,08,04,59,1.80
2012,04,08,05,00,1.80
2012,04,08,05,01,1.80
2012,04,08,05,02,1.80
2012,04,08,05,03,1.80
2012,04,08,05,04,1.80
2012,04,08,05,05,1.80
2012,04,08,05,06,1.80
2012,04,08,05,07,1.80
2012,04,08,05,08,1.80
2012,04,08,05,09,1.80
2012,04,08,05,10,1.80
2012,04,08,05,11,1.80
2012,04,08,05,12,1.80
2012,04,08,05,13,1.80
2012,04,08,05,14,1.80
2012,04,08,05,15,1.80
2012,04,08,05,16,1.80
2012,04,08,05,17,1.80
2012,04,08,05,18,1.80
2012,04,08,05,19,1.80
2012,04,08,05,20,1.80
2012,04,08,05,21,1.80
2012,04,08,05,22,1.90
2012,04,08,05,23,1.90
2012,04,08,05,24,1.90
2012,04,08,05,25,1.90
2012,04,08,05,26,1.90
2012,04,08,05,27,2.00
2012,04,08,05,28,2.00
2012,04,08,05,29,2.00
2012,04,08,05,30,2.00
2012,04,08,05,31,2.00
2012,04,08,05,32,2.00
2012,04,08,05,33,2.00
2012,04,08,05,34,2.00
2012,04,08,05,35,2.00
2012,04,08,05,36,2.00
2012,04,08,05,37,2.00
2012,04,08,05,38,1.90
2012,04,08,05,39,1.90
2012,04,08,05,40,1.90
2012,04,08,05,41,1.90
2012,04,08,05,42,1.90
2012,04,08,05,43,1.90
2012,04,08,05,44,1.90
2012,04,08,05,45,1.90
2012,04,08,05,46,1.90
2012,04,08,05,47,1.90
2012,04,08,05,48,1.90
2012,04,08,05,49,1.90
2012,04,08,05,50,2.00
2012,04,08,05,51,2.00
2012,04,08,05,52,2.00
2012,04,08,05,53,2.00
2012,04,08,05,54,2.00
2012,04,08,05,55,2.00
2012,04,08,05,56,2.00
2012,04,08,05,57,2.00
2012,04,08,05,58,2.00
2012,04,08,05,59,1.90
2012,04,08,06,00,1.90
2012,04,08,06,01,1.90
2012,04,08,06,02,1.90
2012,04,08,06,03,1.90
2012,04,08,06,04,1.90
2012,04,08,06,05,1.90
2012,04,08,06,06,1.90
2012,04,08,06,07,1.90
2012,04,08,06,08,1.90
2012,04,08,06,09,1.90
2012,04,08,06,10,1.90
2012,04,08,06,11,1.90
2012,04,08,06,12,1.90
2012,04,08,06,13,1.90
2012,04,08,06,14,1.90
2012,04,08,06,15,1.90
2012,04,08,06,16,1.90
2012,04,08,06,17,1.90
2012,04,08,06,18,1.90
2012,04,08,06,19,1.90
2012,04,08,06,20,1.90
2012,04,08,06,21,1.90
2012,04,08,06,22,1.90
2012,04,08,06,23,1.90
2012,04,08,06,24,1.90
2012,04,08,06,25,1.90
2012,04,08,06,26,1.90
2012,04,08,06,27,1.90
2012,04,08,06,28,2.00
2012,04,08,06,29,2.00
2012,04,08,06,30,2.00
2012,04,08,06,31,2.00
2012,04,08,06,32,2.00
2012,04,08,06,33,2.00
2012,04,08,06,34,2.00
2012,04,08,06,35,2.00
2012,04,08,06,36,2.00
2012,04,08,06,37,2.10
2012,04,08,06,38,2.10
2012,04,08,06,39,2.10
2012,04,08,06,40,2.10
2012,04,08,06,41,2.10
2012,04,08,06,42,2.10
2012,04,08,06,43,2.10
2012,04,08,06,44,2.10
2012,04,08,06,45,2.10
2012,04,08,06,46,2.10
2012,04,08,06,47,2.10
2012,04,08,06,48,2.20
2012,04,08,06,49,2.20
2012,04,08,06,50,2.20
2012,04,08,06,51,2.20
2012,04,08,06,52,2.20
2012,04,08,06,53,2.20
2012,04,08,06,54,2.20
2012,04,08,06,55,2.20
2012,04,08,06,56,2.20
2012,04,08,06,57,2.20
2012,04,08,06,58,2.20
2012,04,08,06,59,2.20
2012,04,08,07,00,2.20
2012,04,08,07,01,2.20
2012,04,08,07,02,2.20
2012,04,08,07,03,2.20
2012,04,08,07,04,2.20
2012,04,08,07,05,2.30
2012,04,08,07,06,2.20
2012,04,08,07,07,2.30
2012,04,08,07,08,2.30
2012,04,08,07,09,2.30
2012,04,08,07,10,2.30
2012,04,08,07,11,2.30
2012,04,08,07,12,2.30
2012,04,08,07,13,2.30
2012,04,08,07,14,2.30
2012,04,08,07,15,2.30
2012,04,08,07,16,2.40
2012,04,08,07,17,2.40
2012,04,08,07,18,2.40
2012,04,08,07,19,2.40
2012,04,08,07,20,2.50
2012,04,08,07,21,2.50
2012,04,08,07,22,2.50
2012,04,08,07,23,2.60
2012,04,08,07,24,2.60
2012,04,08,07,25,2.60
2012,04,08,07,26,2.60
2012,04,08,07,27,2.70
2012,04,08,07,28,2.70
2012,04,08,07,29,2.70
2012,04,08,07,30,2.70
2012,04,08,07,31,2.70
2012,04,08,07,32,2.80
2012,04,08,07,33,2.80
2012,04,08,07,34,2.80
2012,04,08,07,35,2.80
2012,04,08,07,36,2.90
2012,04,08,07,37,2.90
2012,04,08,07,38,2.90
2012,04,08,07,39,3.00
2012,04,08,07,40,3.00
2012,04,08,07,41,3.10
2012,04,08,07,42,3.10
2012,04,08,07,43,3.10
2012,04,08,07,44,3.10
2012,04,08,07,45,3.10
2012,04,08,07,46,3.20
2012,04,08,07,47,3.20
2012,04,08,07,48,3.20
2012,04,08,07,49,3.20
2012,04,08,07,50,3.30
2012,04,08,07,51,3.30
2012,04,08,07,52,3.30
2012,04,08,07,53,3.30
2012,04,08,07,54,3.30
2012,04,08,07,55,3.40
2012,04,08,07,56,3.40
2012,04,08,07,57,3.40
2012,04,08,07,58,3.50
2012,04,08,07,59,3.50
2012,04,08,08,00,3.60
2012,04,08,08,01,3.60
2012,04,08,08,02,3.60
2012,04,08,08,03,3.60
2012,04,08,08,04,3.70
2012,04,08,08,05,3.70
2012,04,08,08,06,3.70
2012,04,08,08,07,3.70
2012,04,08,08,08,3.80
2012,04,08,08,09,3.80
2012,04,08,08,10,3.80
2012,04,08,08,11,3.80
2012,04,08,08,12,3.80
2012,04,08,08,13,3.90
2012,04,08,08,14,3.90
2012,04,08,08,15,3.90
2012,04,08,08,16,3.90
2012,04,08,08,17,4.00
2012,04,08,08,18,4.00
2012,04,08,08,19,4.10
2012,04,08,08,20,4.10
2012,04,08,08,21,4.10
2012,04,08,08,22,4.20
2012,04,08,08,23,4.20
2012,04,08,08,24,4.20
2012,04,08,08,25,4.20
2012,04,08,08,26,4.30
2012,04,08,08,27,4.30
2012,04,08,08,28,4.30
2012,04,08,08,29,4.40
2012,04,08,08,30,4.40
2012,04,08,08,31,4.40
2012,04,08,08,32,4.50
2012,04,08,08,33,4.50
2012,04,08,08,34,4.50
2012,04,08,08,35,4.60
2012,04,08,08,36,4.60
2012,04,08,08,37,4.60
2012,04,08,08,38,4.60
2012,04,08,08,39,4.60
2012,04,08,08,40,4.70
2012,04,08,08,41,4.70
2012,04,08,08,42,4.70
2012,04,08,08,43,4.70
2012,04,08,08,44,4.80
2012,04,08,08,45,4.80
2012,04,08,08,46,4.80
2012,04,08,08,47,4.80
2012,04,08,08,48,4.80
2012,04,08,08,49,4.90
2012,04,08,08,50,4.90
2012,04,08,08,51,4.90
2012,04,08,08,52,4.90
2012,04,08,08,53,5.00
2012,04,08,08,54,5.00
2012,04,08,08,55,5.00
2012,04,08,08,56,5.10
2012,04,08,08,57,5.10
2012,04,08,08,58,5.10
2012,04,08,08,59,5.20
2012,04,08,09,00,5.20
2012,04,08,09,01,5.20
2012,04,08,09,02,5.20
2012,04,08,09,03,5.30
2012,04,08,09,04,5.30
2012,04,08,09,05,5.30
2012,04,08,09,06,5.30
2012,04,08,09,07,5.40
2012,04,08,09,08,5.40
2012,04,08,09,09,5.40
2012,04,08,09,10,5.40
2012,04,08,09,11,5.50
2012,04,08,09,12,5.50
2012,04,08,09,13,5.60
2012,04,08,09,14,5.60
2012,04,08,09,15,5.60
2012,04,08,09,16,5.60
2012,04,08,09,17,5.60
2012,04,08,09,18,5.70
2012,04,08,09,19,5.70
2012,04,08,09,20,5.70
2012,04,08,09,21,5.70
2012,04,08,09,22,5.80
2012,04,08,09,23,5.80
2012,04,08,09,24,5.80
2012,04,08,09,25,5.80
2012,04,08,09,26,5.80
2012,04,08,09,27,5.90
2012,04,08,09,28,5.90
2012,04,08,09,29,5.90
2012,04,08,09,30,6.00
2012,04,08,09,31,6.00
2012,04,08,09,32,6.10
2012,04,08,09,33,6.10
2012,04,08,09,34,6.10
2012,04,08,09,35,6.20
2012,04,08,09,36,6.20
2012,04,08,09,37,6.20
2012,04,08,09,38,6.30
2012,04,08,09,39,6.30
2012,04,08,09,40,6.40
2012,04,08,09,41,6.40
2012,04,08,09,42,6.50
2012,04,08,09,43,6.60
2012,04,08,09,44,6.60
2012,04,08,09,45,6.70
2012,04,08,09,46,6.70
2012,04,08,09,47,6.80
2012,04,08,09,48,6.90
2012,04,08,09,49,6.90
2012,04,08,09,50,7.00
2012,04,08,09,51,7.00
2012,04,08,09,52,7.10
2012,04,08,09,53,7.10
2012,04,08,09,54,7.20
2012,04,08,09,55,7.20
2012,04,08,09,56,7.30
2012,04,08,09,57,7.40
2012,04,08,09,58,7.40
2012,04,08,09,59,7.50
2012,04,08,10,00,7.50
2012,04,08,10,01,7.60
2012,04,08,10,02,7.60
2012,04,08,10,03,7.70
2012,04,08,10,04,7.70
2012,04,08,10,05,7.70
2012,04,08,10,06,7.80
2012,04,08,10,07,7.80
2012,04,08,10,08,7.80
2012,04,08,10,09,7.80
2012,04,08,10,10,7.90
2012,04,08,10,11,7.90
2012,04,08,10,12,7.90
2012,04,08,10,13,7.90
2012,04,08,10,14,7.90
2012,04,08,10,15,7.90
2012,04,08,10,16,7.90
2012,04,08,10,17,7.90
2012,04,08,10,18,7.90
2012,04,08,10,19,8.00
2012,04,08,10,20,8.00
2012,04,08,10,21,8.10
2012,04,08,10,22,8.00
2012,04,08,10,23,8.00
2012,04,08,10,24,8.10
2012,04,08,10,25,8.10
2012,04,08,10,26,8.10
2012,04,08,10,27,8.20
2012,04,08,10,28,8.20
2012,04,08,10,29,8.20
2012,04,08,10,30,8.20
2012,04,08,10,31,8.30
2012,04,08,10,32,8.40
2012,04,08,10,33,8.40
2012,04,08,10,34,8.50
2012,04,08,10,35,8.60
2012,04,08,10,36,8.70
2012,04,08,10,37,8.80
2012,04,08,10,38,8.80
2012,04,08,10,39,8.80
2012,04,08,10,40,8.80
2012,04,08,10,41,8.80
2012,04,08,10,42,8.80
2012,04,08,10,43,8.80
2012,04,08,10,44,8.80
2012,04,08,10,45,8.80
2012,04,08,10,46,8.80
2012,04,08,10,47,8.80
2012,04,08,10,48,8.80
2012,04,08,10,49,8.80
2012,04,08,10,50,8.80
2012,04,08,10,51,8.90
2012,04,08,10,52,9.00
2012,04,08,10,53,9.00
2012,04,08,10,54,9.10
2012,04,08,10,55,9.10
2012,04,08,10,56,9.10
2012,04,08,10,57,9.10
2012,04,08,10,58,9.20
2012,04,08,10,59,9.30
2012,04,08,11,00,9.40
2012,04,08,11,01,9.50
2012,04,08,11,02,9.60
2012,04,08,11,03,9.60
2012,04,08,11,04,9.60
2012,04,08,11,05,9.60
2012,04,08,11,06,9.50
2012,04,08,11,07,9.40
2012,04,08,11,08,9.40
2012,04,08,11,09,9.40
2012,04,08,11,10,9.40
2012,04,08,11,11,9.40
2012,04,08,11,12,9.40
2012,04,08,11,13,9.40
2012,04,08,11,14,9.40
2012,04,08,11,15,9.40
2012,04,08,11,16,9.40
2012,04,08,11,17,9.40
2012,04,08,11,18,9.40
2012,04,08,11,19,9.30
2012,04,08,11,20,9.30
2012,04,08,11,21,9.30
2012,04,08,11,22,9.30
2012,04,08,11,23,9.30
2012,04,08,11,24,9.30
2012,04,08,11,25,9.30
2012,04,08,11,26,9.30
2012,04,08,11,27,9.30
2012,04,08,11,28,9.30
2012,04,08,11,29,9.40
2012,04,08,11,30,9.40
2012,04,08,11,31,9.40
2012,04,08,11,32,9.40
2012,04,08,11,33,9.40
2012,04,08,11,34,9.40
2012,04,08,11,35,9.40
2012,04,08,11,36,9.40
2012,04,08,11,37,9.50
2012,04,08,11,38,9.40
2012,04,08,11,39,9.40
2012,04,08,11,40,9.30
2012,04,08,11,41,9.30
2012,04,08,11,42,9.20
2012,04,08,11,43,9.20
2012,04,08,11,44,9.20
2012,04,08,11,45,9.20
2012,04,08,11,46,9.20
2012,04,08,11,47,9.20
2012,04,08,11,48,9.20
2012,04,08,11,49,9.10
2012,04,08,11,50,9.10
2012,04,08,11,51,9.20
2012,04,08,11,52,9.20
2012,04,08,11,53,9.20
2012,04,08,11,54,9.20
2012,04,08,11,55,9.20
2012,04,08,11,56,9.20
2012,04,08,11,57,9.20
2012,04,08,11,58,9.30
2012,04,08,11,59,9.30
2012,04,08,12,00,9.40
2012,04,08,12,01,9.40
2012,04,08,12,02,9.50
2012,04,08,12,03,9.60
2012,04,08,12,04,9.60
2012,04,08,12,05,9.60
2012,04,08,12,06,9.60
2012,04,08,12,07,9.60
2012,04,08,12,08,9.50
2012,04,08,12,09,9.50
2012,04,08,12,10,9.40
2012,04,08,12,11,9.40
2012,04,08,12,12,9.40
2012,04,08,12,13,9.40
2012,04,08,12,14,9.50
2012,04,08,12,15,9.60
2012,04,08,12,16,9.60
2012,04,08,12,17,9.60
2012,04,08,12,18,9.60
2012,04,08,12,19,9.60
2012,04,08,12,20,9.60
2012,04,08,12,21,9.60
2012,04,08,12,22,9.60
2012,04,08,12,23,9.60
2012,04,08,12,24,9.60
2012,04,08,12,25,9.60
2012,04,08,12,26,9.60
2012,04,08,12,27,9.50
2012,04,08,12,28,9.50
2012,04,08,12,29,9.40
2012,04,08,12,30,9.30
2012,04,08,12,31,9.30
2012,04,08,12,32,9.30
2012,04,08,12,33,9.30
2012,04,08,12,34,9.30
2012,04,08,12,35,9.20
2012,04,08,12,36,9.20
2012,04,08,12,37,9.20
2012,04,08,12,38,9.20
2012,04,08,12,39,9.20
2012,04,08,12,40,9.20
2012,04,08,12,41,9.20
2012,04,08,12,42,9.30
2012,04,08,12,43,9.30
2012,04,08,12,44,9.30
2012,04,08,12,45,9.20
2012,04,08,12,46,9.20
2012,04,08,12,47,9.10
2012,04,08,12,48,9.10
2012,04,08,12,49,9.10
2012,04,08,12,50,9.10
2012,04,08,12,51,9.10
2012,04,08,12,52,9.10
2012,04,08,12,53,9.10
2012,04,08,12,54,9.10
2012,04,08,12,55,9.00
2012,04,08,12,56,9.00
2012,04,08,12,57,9.00
2012,04,08,12,58,8.90
2012,04,08,12,59,8.90
2012,04,08,13,00,8.90
2012,04,08,13,01,8.90
2012,04,08,13,02,8.90
2012,04,08,13,03,8.90
2012,04,08,13,04,8.90
2012,04,08,13,05,8.90
2012,04,08,13,06,8.90
2012,04,08,13,07,8.90
2012,04,08,13,08,9.00
2012,04,08,13,09,9.00
2012,04,08,13,10,9.00
2012,04,08,13,11,9.00
2012,04,08,13,12,9.00
2012,04,08,13,13,9.00
2012,04,08,13,14,9.00
2012,04,08,13,15,9.00
2012,04,08,13,16,9.00
2012,04,08,13,17,9.00
2012,04,08,13,18,9.00
2012,04,08,13,19,9.00
2012,04,08,13,20,9.00
2012,04,08,13,21,9.10
2012,04,08,13,22,9.10
2012,04,08,13,23,9.10
2012,04,08,13,24,9.10
2012,04,08,13,25,9.20
2012,04,08,13,26,9.20
2012,04,08,13,27,9.20
2012,04,08,13,28,9.20
2012,04,08,13,29,9.20
2012,04,08,13,30,9.20
2012,04,08,13,31,9.20
2012,04,08,13,32,9.30
2012,04,08,13,33,9.30
2012,04,08,13,34,9.30
2012,04,08,13,35,9.30
2012,04,08,13,36,9.30
2012,04,08,13,37,9.30
2012,04,08,13,38,9.30
2012,04,08,13,39,9.30
2012,04,08,13,40,9.20
2012,04,08,13,41,9.20
2012,04,08,13,42,9.20
2012,04,08,13,43,9.20
2012,04,08,13,44,9.20
2012,04,08,13,45,9.20
2012,04,08,13,46,9.20
2012,04,08,13,47,9.20
2012,04,08,13,48,9.20
2012,04,08,13,49,9.20
2012,04,08,13,50,9.20
2012,04,08,13,51,9.20
2012,04,08,13,52,9.20
2012,04,08,13,53,9.20
2012,04,08,13,54,9.20
2012,04,08,13,55,9.20
2012,04,08,13,56,9.20
2012,04,08,13,57,9.20
2012,04,08,13,58,9.20
2012,04,08,13,59,9.20
2012,04,08,14,00,9.20
2012,04,08,14,01,9.20
2012,04,08,14,02,9.30
2012,04,08,14,03,9.30
2012,04,08,14,04,9.30
2012,04,08,14,05,9.30
2012,04,08,14,06,9.30
2012,04,08,14,07,9.40
2012,04,08,14,08,9.40
2012,04,08,14,09,9.40
2012,04,08,14,10,9.40
2012,04,08,14,11,9.40
2012,04,08,14,12,9.40
2012,04,08,14,13,9.40
2012,04,08,14,14,9.50
2012,04,08,14,15,9.50
2012,04,08,14,16,9.60
2012,04,08,14,17,9.60
2012,04,08,14,18,9.60
2012,04,08,14,19,9.60
2012,04,08,14,20,9.60
2012,04,08,14,21,9.50
2012,04,08,14,22,9.50
2012,04,08,14,23,9.50
2012,04,08,14,24,9.40
2012,04,08,14,25,9.40
2012,04,08,14,26,9.30
2012,04,08,14,27,9.30
2012,04,08,14,28,9.30
2012,04,08,14,29,9.30
2012,04,08,14,30,9.30
2012,04,08,14,31,9.30
2012,04,08,14,32,9.30
2012,04,08,14,33,9.30
2012,04,08,14,34,9.30
2012,04,08,14,35,9.30
2012,04,08,14,36,9.30
2012,04,08,14,37,9.30
2012,04,08,14,38,9.30
2012,04,08,14,39,9.30
2012,04,08,14,40,9.30
2012,04,08,14,41,9.30
2012,04,08,14,42,9.30
2012,04,08,14,43,9.40
2012,04,08,14,44,9.40
2012,04,08,14,45,9.50
2012,04,08,14,46,9.50
2012,04,08,14,47,9.60
2012,04,08,14,48,9.60
2012,04,08,14,49,9.60
2012,04,08,14,50,9.70
2012,04,08,14,51,9.70
2012,04,08,14,52,9.70
2012,04,08,14,53,9.80
2012,04,08,14,54,9.80
2012,04,08,14,55,9.80
2012,04,08,14,56,9.80
2012,04,08,14,57,9.80
2012,04,08,14,58,9.80
2012,04,08,14,59,9.80
2012,04,08,15,00,9.80
2012,04,08,15,01,9.80
2012,04,08,15,02,9.80
2012,04,08,15,03,9.80
2012,04,08,15,04,9.90
2012,04,08,15,05,9.90
2012,04,08,15,06,9.90
2012,04,08,15,07,10.00
2012,04,08,15,08,10.00
2012,04,08,15,09,10.10
2012,04,08,15,10,10.10
2012,04,08,15,11,10.10
2012,04,08,15,12,10.20
2012,04,08,15,13,10.20
2012,04,08,15,14,10.30
2012,04,08,15,15,10.30
2012,04,08,15,16,10.40
2012,04,08,15,17,10.40
2012,04,08,15,18,10.40
2012,04,08,15,19,10.50
2012,04,08,15,20,10.50
2012,04,08,15,21,10.50
2012,04,08,15,22,10.60
2012,04,08,15,23,10.60
2012,04,08,15,24,10.60
2012,04,08,15,25,10.70
2012,04,08,15,26,10.70
2012,04,08,15,27,10.70
2012,04,08,15,28,10.70
2012,04,08,15,29,10.70
2012,04,08,15,30,10.80
2012,04,08,15,31,10.80
2012,04,08,15,32,10.80
2012,04,08,15,33,10.80
2012,04,08,15,34,10.80
2012,04,08,15,35,10.80
2012,04,08,15,36,10.80
2012,04,08,15,37,10.80
2012,04,08,15,38,10.70
2012,04,08,15,39,10.70
2012,04,08,15,40,10.70
2012,04,08,15,41,10.80
2012,04,08,15,42,10.80
2012,04,08,15,43,10.80
2012,04,08,15,44,10.80
2012,04,08,15,45,10.90
2012,04,08,15,46,10.90
2012,04,08,15,47,10.90
2012,04,08,15,48,10.90
2012,04,08,15,49,10.90
2012,04,08,15,50,10.90
2012,04,08,15,51,11.00
2012,04,08,15,52,11.00
2012,04,08,15,53,11.10
2012,04,08,15,54,11.10
2012,04,08,15,55,11.20
2012,04,08,15,56,11.20
2012,04,08,15,57,11.20
2012,04,08,15,58,11.20
2012,04,08,15,59,11.20
2012,04,08,16,00,11.20
2012,04,08,16,01,11.20
2012,04,08,16,02,11.20
2012,04,08,16,03,11.30
2012,04,08,16,04,11.30
2012,04,08,16,05,11.30
2012,04,08,16,06,11.30
2012,04,08,16,07,11.30
2012,04,08,16,08,11.40
2012,04,08,16,09,11.40
2012,04,08,16,10,11.40
2012,04,08,16,11,11.40
2012,04,08,16,12,11.40
2012,04,08,16,13,11.40
2012,04,08,16,14,11.40
2012,04,08,16,15,11.40
2012,04,08,16,16,11.40
2012,04,08,16,17,11.40
2012,04,08,16,18,11.40
2012,04,08,16,19,11.40
2012,04,08,16,20,11.30
2012,04,08,16,21,11.30
2012,04,08,16,22,11.30
2012,04,08,16,23,11.20
2012,04,08,16,24,11.20
2012,04,08,16,25,11.20
2012,04,08,16,26,11.20
2012,04,08,16,27,11.20
2012,04,08,16,28,11.20
2012,04,08,16,29,11.10
2012,04,08,16,30,11.10
2012,04,08,16,31,11.10
2012,04,08,16,32,11.10
2012,04,08,16,33,11.10
2012,04,08,16,34,11.10
2012,04,08,16,35,11.10
2012,04,08,16,36,11.10
2012,04,08,16,37,11.20
2012,04,08,16,38,11.20
2012,04,08,16,39,11.20
2012,04,08,16,40,11.20
2012,04,08,16,41,11.20
2012,04,08,16,42,11.20
2012,04,08,16,43,11.20
2012,04,08,16,44,11.10
2012,04,08,16,45,11.10
2012,04,08,16,46,11.10
2012,04,08,16,47,11.10
2012,04,08,16,48,11.10
2012,04,08,16,49,11.10
2012,04,08,16,50,11.10
2012,04,08,16,51,11.10
2012,04,08,16,52,11.20
2012,04,08,16,53,11.20
2012,04,08,16,54,11.20
2012,04,08,16,55,11.20
2012,04,08,16,56,11.20
2012,04,08,16,57,11.20
2012,04,08,16,58,11.20
2012,04,08,16,59,11.20
2012,04,08,17,00,11.20
2012,04,08,17,01,11.20
2012,04,08,17,02,11.20
2012,04,08,17,03,11.20
2012,04,08,17,04,11.20
2012,04,08,17,05,11.20
2012,04,08,17,06,11.20
2012,04,08,17,07,11.30
2012,04,08,17,08,11.30
2012,04,08,17,09,11.30
2012,04,08,17,10,11.30
2012,04,08,17,11,11.30
2012,04,08,17,12,11.30
2012,04,08,17,13,11.30
2012,04,08,17,14,11.30
2012,04,08,17,15,11.40
2012,04,08,17,16,11.30
2012,04,08,17,17,11.40
2012,04,08,17,18,11.40
2012,04,08,17,19,11.40
2012,04,08,17,20,11.50
2012,04,08,17,21,11.50
2012,04,08,17,22,11.50
2012,04,08,17,23,11.60
2012,04,08,17,24,11.60
2012,04,08,17,25,11.60
2012,04,08,17,26,11.70
2012,04,08,17,27,11.70
2012,04,08,17,28,11.70
2012,04,08,17,29,11.70
2012,04,08,17,30,11.80
2012,04,08,17,31,11.80
2012,04,08,17,32,11.80
2012,04,08,17,33,11.80
2012,04,08,17,34,11.80
2012,04,08,17,35,11.80
2012,04,08,17,36,11.80
2012,04,08,17,37,11.70
2012,04,08,17,38,11.70
2012,04,08,17,39,11.70
2012,04,08,17,40,11.70
2012,04,08,17,41,11.70
2012,04,08,17,42,11.70
2012,04,08,17,43,11.70
2012,04,08,17,44,11.70
2012,04,08,17,45,11.70
2012,04,08,17,46,11.70
2012,04,08,17,47,11.70
2012,04,08,17,48,11.80
2012,04,08,17,49,11.80
2012,04,08,17,50,11.80
2012,04,08,17,51,11.80
2012,04,08,17,52,11.80
2012,04,08,17,53,11.80
2012,04,08,17,54,11.80
2012,04,08,17,55,11.80
2012,04,08,17,56,11.80
2012,04,08,17,57,11.90
2012,04,08,17,58,11.90